Regional Weather Roundup
Issued by NWS Memphis, TN

Home | Current Version | Previous Version | Text Only | Print | Product List | Glossary On
Versions: 1 2 3 4 5 6 7 8 9 10 11 12 13 14 15 16 17 18 19 20 21 22 23 24 25 26 27 28 29 30 31 32 33 34 35 36 37 38 39 40 41 42 43 44 45 46 47 48 49 50
000
ASUS44 KMEG 310300
RWRMEG
MEMPHIS CWA HOURLY WEATHER ROUNDUP
NATIONAL WEATHER SERVICE MEMPHIS TN
1000 PM CDT SAT AUG 30 2014

...WEST TENNESSEE...

CITY           SKY/WX    TMP DP  RH WIND       PRES   REMARKS
MEMPHIS INTL   CLOUDY    74  70  87 S10       30.01R
NWS MEMPHIS      N/A     73 N/A N/A MISG        N/A
JACKSON        LGT RAIN  72  70  93 S7        30.04S
SAVANNAH       PTCLDY    72  72 100 CALM      30.07S
DYERSBURG      CLOUDY    73  63  68 S6        30.02F
PARIS          CLEAR     72  70  94 S7        30.05S


...EASTERN ARKANSAS...

CITY           SKY/WX    TMP DP  RH WIND       PRES   REMARKS
JONESBORO      CLOUDY    75  69  81 S9        29.98S
WEST MEMPHIS   CLOUDY    73  73 100 S13       29.99R
BATESVILLE     MOCLDY    75  72  88 S5        29.99R
WALNUT RIDGE   CLOUDY    75  70  83 S9        29.97S
BLYTHEVILLE    CLOUDY    75  73  93 S13       30.00S
STUTTGART      CLOUDY    75  72  88 E10       29.97S
PINE BLUFF     LGT RAIN  74  72  93 E6        29.96S
MONTICELLO     LGT RAIN  75  73  93 S10       29.96R


...NORTH MISSISSIPPI...

CITY           SKY/WX    TMP DP  RH WIND       PRES   REMARKS
TUPELO         CLOUDY    73  71  93 SE8       30.06R
OLIVE BRANCH   PTCLDY    72 N/A N/A SE5       30.02R
GREENWOOD      CLOUDY    74  72  93 S9        30.01R
STARKVILLE     FAIR      70  70 100 SE5       30.07R
GOLDEN TRIANGL CLOUDY    73  68  83 SE10      30.08R


...SOUTHEAST MISSOURI...

CITY           SKY/WX    TMP DP  RH WIND       PRES   REMARKS
WEST PLAINS    PTCLDY    74  69  85 S5        30.00R
POPLAR BLUFF   CLOUDY    75  70  84 S6        29.96R
CAPE GIRARDEAU CLOUDY    73  71  93 S8        29.99R


...NORTHWEST ALABAMA...

CITY           SKY/WX    TMP DP  RH WIND       PRES   REMARKS
MUSCLE SHOALS  CLOUDY    73  70  90 CALM      30.10F


...MIDDLE TENNESSEE...

CITY           SKY/WX    TMP DP  RH WIND       PRES   REMARKS
NASHVILLE      LGT RAIN  72  70  93 S8        30.10R
CLARKSVILLE    CLOUDY    75  72  90 S9        30.05S


...WESTERN KENTUCKY...

CITY           SKY/WX    TMP DP  RH WIND       PRES   REMARKS
PADUCAH        CLOUDY    75  72  90 S7        30.00R
FORT CAMPBELL  CLOUDY    75  75 100 SE8       30.05S


...CENTRAL ARKANSAS...

CITY           SKY/WX    TMP DP  RH WIND       PRES   REMARKS
LITTLE ROCK    MOCLDY    76  71  85 SE9       29.97R


SKY/WX REPORTED AS FAIR MEANS FEW OR NO CLOUDS BELOW
12 THOUSAND FEET.



USA.gov is the U.S. government's official web portal to all federal, state and local government web resources and services.